"startDT [UTC]","vpos","CH4 [ppm]","stdev(CH4) [ppm]","CO2 [ppm]","stdev(CO2) [ppm]","H2O [ppm]","stdev(H2O)","p_LGR [torr]","T_LGR [C]","mt1_LGR [us]","mt2_LGR [us]","T_ECpre [C]","T_EC1 [C]","T_EC2 [C]","p_inlet [hPa]","p_in [hPa]","p_out [hPa]","T_inlet [C]","RH_inlet [%]","dwpt_inlet [C]","T_vent [C]","RH_vent [%]","dwpt_vent [C]","flow_vent [l min-1]","flow_inlet [l min-1]","dwpt_sample [C]","T_room [C]"
2012-06-19 00:00:00,0.0,1.9016,0.0009,400.33,0.30,4.1,12.5,138.06,30.77,24.65,36.48,0.96,-19.94,-26.72,-53,527,-913,21.5,29.3,2.8,21.9,1.8,-30.9,5.73,2.32,-28.9,28.2
2012-06-19 00:01:00,0.0,1.9018,0.0010,400.46,0.30,3.1,11.6,138.06,30.77,24.64,36.47,1.01,-20.52,-26.73,-53,527,-913,21.5,29.5,2.9,21.9,1.7,-31.0,5.73,2.28,-28.9,28.2
2012-06-19 00:02:00,0.0,1.9019,0.0008,400.47,0.31,4.7,12.2,138.06,30.77,24.64,36.47,1.04,-21.08,-26.74,-53,527,-913,21.5,29.3,2.8,21.9,1.7,-31.1,5.73,2.32,-28.9,28.1
2012-06-19 00:03:00,0.0,1.9021,0.0009,400.49,0.23,2.7,9.4,138.06,30.77,24.64,36.47,1.01,-21.60,-26.76,-53,527,-913,21.4,29.1,2.7,21.9,1.7,-31.0,5.73,2.31,-28.9,28.1
2012-06-19 00:04:00,0.0,1.9024,0.0009,400.47,0.32,3.0,8.7,138.06,30.77,24.64,36.47,0.95,-22.10,-26.77,-53,527,-913,21.5,29.1,2.7,21.9,1.7,-31.0,5.73,2.30,-28.9,28.1
2012-06-19 00:05:00,0.0,1.9021,0.0010,400.45,0.28,2.0,8.3,138.06,30.77,24.64,36.47,0.97,-22.56,-26.78,-53,527,-913,21.5,29.2,2.8,21.9,1.7,-31.0,5.73,2.32,-28.9,28.1
2012-06-19 00:06:00,0.0,1.9022,0.0008,400.46,0.34,3.2,11.0,138.06,30.77,24.64,36.47,1.04,-22.99,-26.80,-53,527,-913,21.5,29.4,2.8,21.9,1.7,-31.0,5.73,2.29,-28.9,28.1
2012-06-19 00:07:00,0.0,1.9025,0.0010,400.57,0.28,2.2,10.5,138.06,30.77,24.64,36.46,1.05,-23.40,-26.81,-53,527,-913,21.4,29.3,2.8,21.9,1.7,-31.0,5.73,2.32,-28.9,28.1
2012-06-19 00:08:00,0.0,1.9025,0.0010,400.53,0.30,4.5,13.5,138.06,30.78,24.64,36.47,0.96,-23.79,-26.82,-53,527,-913,21.4,29.2,2.8,21.9,1.7,-31.0,5.73,2.31,-28.9,28.1
2012-06-19 00:09:00,0.0,1.9021,0.0008,400.44,0.33,1.4,9.7,138.06,30.77,24.65,36.47,0.95,-24.15,-26.84,-53,527,-913,21.4,29.4,2.8,21.9,1.7,-31.0,5.73,2.30,-28.9,28.1
2012-06-19 00:10:00,0.0,1.9020,0.0010,400.43,0.28,2.6,11.1,138.06,30.78,24.65,36.47,0.99,-24.49,-26.85,-53,527,-913,21.4,29.6,2.9,21.9,1.7,-31.0,5.73,2.33,-29.0,28.1
2012-06-19 00:11:00,0.0,1.9024,0.0010,400.46,0.27,1.6,8.0,138.06,30.78,24.64,36.47,1.03,-24.81,-26.86,-53,527,-914,21.4,29.6,2.9,21.9,1.7,-31.1,5.73,2.29,-29.0,28.1
2012-06-19 00:12:00,0.0,1.9024,0.0011,400.48,0.34,1.5,10.0,138.06,30.78,24.65,36.47,1.03,-25.11,-26.88,-53,527,-913,21.4,29.5,2.9,21.9,1.7,-31.1,5.73,2.32,-29.0,28.1
2012-06-19 00:13:00,0.0,1.9025,0.0009,400.55,0.25,1.0,6.9,138.06,30.78,24.64,36.47,0.96,-25.40,-26.89,-53,527,-913,21.4,29.5,2.9,21.9,1.7,-31.0,5.73,2.32,-29.0,28.1
2012-06-19 00:14:00,0.0,1.9025,0.0009,400.39,0.26,2.6,11.6,138.06,30.78,24.64,36.48,0.95,-25.67,-26.90,-53,527,-914,21.4,29.5,2.9,21.9,1.7,-31.0,5.73,2.30,-29.0,28.1
2012-06-19 00:15:00,0.0,1.9023,0.0010,400.59,0.31,3.4,11.0,138.06,30.78,24.65,36.47,0.99,-25.93,-26.91,-53,527,-913,21.4,29.5,2.9,21.9,1.7,-31.1,5.73,2.33,-29.0,28.1
2012-06-19 00:16:00,0.0,1.9027,0.0009,400.52,0.26,1.7,9.3,138.06,30.78,24.64,36.47,1.02,-26.16,-26.92,-53,527,-913,21.4,29.6,2.9,21.9,1.7,-31.2,5.73,2.30,-29.0,28.1
2012-06-19 00:17:00,0.0,1.9026,0.0011,400.52,0.31,1.7,7.7,138.06,30.79,24.64,36.47,1.02,-26.39,-26.93,-53,527,-914,21.5,29.7,3.0,21.9,1.7,-31.2,5.73,2.32,-29.0,28.0
2012-06-19 00:18:00,0.0,1.9027,0.0008,400.51,0.30,3.6,13.5,138.06,30.79,24.65,36.47,0.97,-26.60,-26.95,-53,527,-913,21.4,29.7,3.0,21.9,1.7,-31.2,5.73,2.32,-29.0,28.1
2012-06-19 00:19:00,0.0,1.9024,0.0008,400.58,0.29,1.0,5.3,138.06,30.79,24.65,36.47,0.95,-26.80,-26.96,-53,527,-913,21.4,29.6,2.9,21.9,1.7,-31.2,5.73,2.30,-29.0,28.1
2012-06-19 00:20:00,0.0,1.9026,0.0010,400.51,0.29,2.7,12.3,138.06,30.79,24.64,36.47,0.90,-26.88,-26.97,-53,527,-914,21.4,29.6,2.9,21.9,1.7,-31.2,5.73,2.33,-29.0,28.1
2012-06-19 00:21:00,0.0,1.9031,0.0011,400.68,0.37,0.5,5.2,138.06,30.79,24.64,36.47,1.00,-26.54,-26.97,-53,527,-913,21.4,29.7,3.0,21.9,1.7,-31.2,5.73,2.31,-29.0,28.0
2012-06-19 00:22:00,0.0,1.9029,0.0012,401.37,0.28,0.6,5.1,138.06,30.79,24.64,36.46,1.04,-26.61,-26.99,-53,527,-913,21.4,29.7,3.0,21.9,1.7,-31.2,5.73,2.32,-29.0,28.0
2012-06-19 00:23:00,0.0,1.9033,0.0009,401.18,0.25,1.9,8.2,138.06,30.79,24.64,36.47,1.02,-26.77,-27.00,-53,527,-914,21.4,29.6,2.9,21.9,1.7,-31.2,5.73,2.33,-29.0,28.0
2012-06-19 00:24:00,0.0,1.9032,0.0011,400.91,0.31,2.1,10.0,138.06,30.79,24.64,36.47,0.96,-26.95,-27.01,-53,527,-913,21.4,29.7,3.0,21.9,1.7,-31.2,5.73,2.30,-29.0,28.0
2012-06-19 00:25:00,0.0,1.9039,0.0009,400.87,0.38,-0.2,3.7,138.06,30.79,24.64,36.47,0.95,-26.72,-27.02,-53,527,-913,21.4,29.7,2.9,21.9,1.7,-31.2,5.73,2.32,-29.0,28.0
2012-06-19 00:26:00,0.0,1.9034,0.0009,400.67,0.28,0.4,5.2,138.06,30.79,24.64,36.47,0.95,-26.60,-27.03,-53,527,-913,21.4,29.5,2.8,21.9,1.7,-31.2,5.73,2.32,-29.0,28.0
2012-06-19 00:27:00,0.0,1.9029,0.0010,400.66,0.35,1.2,6.3,138.06,30.79,24.65,36.48,0.96,-26.73,-27.04,-53,527,-913,21.4,29.6,2.9,21.9,1.7,-31.3,5.73,2.30,-29.0,28.0
2012-06-19 00:28:00,0.0,1.9033,0.0010,400.98,0.33,0.6,5.5,138.06,30.79,24.64,36.47,1.02,-26.91,-27.06,-53,527,-914,21.4,29.7,2.9,21.9,1.7,-31.2,5.73,2.34,-29.0,28.0
2012-06-19 00:29:00,0.0,1.9031,0.0011,401.10,0.29,2.7,10.4,138.06,30.79,24.64,36.47,0.91,-26.96,-27.07,-53,527,-913,21.4,29.8,3.0,21.9,1.7,-31.3,5.73,2.31,-29.0,28.0
2012-06-19 00:30:00,0.0,1.9030,0.0010,401.13,0.36,5.1,12.1,138.06,30.79,24.65,36.46,1.03,-26.63,-27.07,-53,527,-914,21.4,29.8,3.0,21.9,1.7,-31.4,5.73,2.31,-29.0,28.0
2012-06-19 00:31:00,0.0,1.9033,0.0010,400.76,0.36,1.2,6.2,138.06,30.79,24.64,36.47,1.03,-26.70,-27.07,-53,527,-913,21.4,29.7,3.0,21.9,1.7,-31.2,5.73,2.33,-29.0,28.0
2012-06-19 00:32:00,0.0,1.9030,0.0008,400.64,0.33,1.4,7.9,138.06,30.79,24.64,36.47,0.80,-26.89,-26.27,-53,527,-913,21.4,29.8,3.0,21.9,1.7,-31.1,5.73,2.30,-29.0,28.0
2012-06-19 00:33:00,0.0,1.9030,0.0009,400.47,0.27,2.2,8.1,138.06,30.79,24.64,36.47,0.82,-27.04,-24.45,-53,527,-914,21.4,29.7,3.0,21.9,1.9,-30.1,5.73,2.34,-29.1,28.0
2012-06-19 00:34:00,0.0,1.9031,0.0010,400.78,0.34,3.2,11.4,138.06,30.79,24.64,36.47,0.91,-27.12,-22.47,-53,527,-913,21.4,29.7,2.9,21.9,2.1,-29.1,5.73,2.30,-29.0,28.0
2012-06-19 00:35:00,0.0,1.9032,0.0008,402.06,0.50,3.8,13.9,138.06,30.79,24.64,36.47,0.95,-27.17,-20.52,-53,527,-914,21.4,29.5,2.9,21.9,2.2,-28.5,5.73,2.32,-29.1,28.0
2012-06-19 00:36:00,0.0,1.9028,0.0009,401.82,0.39,2.1,9.2,138.06,30.79,24.64,36.48,0.87,-27.18,-18.65,-53,527,-913,21.4,29.5,2.8,21.9,2.3,-28.3,5.73,2.32,-29.1,28.0
2012-06-19 00:37:00,0.0,1.9030,0.0009,401.78,0.31,0.5,4.6,138.06,30.79,24.65,36.47,0.79,-27.18,-16.87,-53,526,-914,21.4,29.5,2.8,21.9,2.3,-28.3,5.73,2.30,-29.0,28.0
2012-06-19 00:38:00,0.0,1.9029,0.0010,401.90,0.27,1.5,6.1,138.06,30.79,24.64,36.47,0.85,-27.17,-15.18,-53,526,-913,21.4,29.4,2.8,21.9,2.2,-28.4,5.73,2.34,-29.0,28.0
2012-06-19 00:39:00,0.0,1.9025,0.0010,401.58,0.41,1.7,7.5,138.06,30.79,24.64,36.47,0.91,-27.16,-13.59,-53,526,-914,21.4,29.4,2.8,21.9,2.2,-28.5,5.73,2.30,-29.0,28.0
2012-06-19 00:40:00,0.0,1.9027,0.0010,400.93,0.32,2.6,9.5,138.06,30.79,24.64,36.47,0.95,-27.13,-12.07,-53,526,-913,21.4,29.5,2.9,21.9,2.2,-28.8,5.73,2.33,-29.0,28.0
2012-06-19 00:41:00,0.0,1.9026,0.0011,400.59,0.28,4.2,11.4,138.06,30.79,24.65,36.47,0.88,-27.11,-10.64,-53,527,-914,21.4,29.4,2.8,21.9,2.1,-28.9,5.73,2.31,-29.0,28.0
2012-06-19 00:42:00,0.0,1.9029,0.0009,400.53,0.26,1.1,7.2,138.06,30.79,24.64,36.48,0.80,-27.09,-9.28,-53,526,-913,21.4,29.2,2.7,21.9,2.1,-29.0,5.73,2.31,-29.0,28.0
2012-06-19 00:43:00,0.0,1.9033,0.0011,400.64,0.30,2.9,8.2,138.06,30.79,24.64,36.47,0.86,-27.06,-7.98,-52,526,-914,21.4,29.1,2.7,21.9,2.1,-29.2,5.73,2.33,-29.0,28.0
2012-06-19 00:44:00,0.0,1.9028,0.0009,400.53,0.28,2.8,9.8,138.06,30.79,24.65,36.47,0.93,-27.04,-6.77,-53,526,-913,21.4,29.0,2.6,21.9,2.1,-29.2,5.73,2.30,-29.0,28.0
2012-06-19 00:45:00,0.0,1.9028,0.0008,400.45,0.30,1.8,6.7,138.06,30.79,24.64,36.47,0.95,-27.02,-5.61,-52,526,-913,21.4,28.8,2.5,21.9,2.0,-29.4,5.73,2.34,-29.0,28.0
2012-06-19 00:46:00,0.0,1.9025,0.0009,400.58,0.29,2.5,8.3,138.06,30.78,24.64,36.46,0.94,-27.00,-4.50,-53,526,-914,21.4,28.9,2.6,21.9,2.0,-29.5,5.73,2.29,-29.0,28.0
2012-06-19 00:47:00,0.0,1.9025,0.0009,400.39,0.33,1.3,7.1,138.06,30.78,24.64,36.47,0.85,-26.98,-3.45,-53,526,-913,21.4,28.9,2.5,21.9,2.0,-29.6,5.73,2.33,-29.0,28.0
2012-06-19 00:48:00,0.0,1.9026,0.0009,400.47,0.31,1.3,7.9,138.06,30.78,24.64,36.47,0.83,-26.96,-2.45,-52,526,-914,21.4,28.9,2.6,21.9,2.0,-29.7,5.73,2.30,-29.0,28.0
2012-06-19 00:49:00,0.0,1.9029,0.0008,400.52,0.29,1.5,5.9,138.06,30.78,24.64,36.46,0.89,-26.94,-1.50,-52,526,-913,21.4,28.8,2.5,21.9,2.0,-29.7,5.73,2.32,-29.0,28.0
2012-06-19 00:50:00,0.0,1.9027,0.0010,400.46,0.33,4.2,10.4,138.06,30.78,24.64,36.47,0.92,-26.91,-0.60,-52,526,-914,21.4,28.8,2.5,21.9,2.0,-29.8,5.73,2.31,-28.9,28.0
2012-06-19 00:51:00,0.0,1.9024,0.0009,400.45,0.26,3.5,11.1,138.06,30.78,24.64,36.47,0.94,-26.89,0.26,-52,526,-913,21.4,29.0,2.6,21.9,2.0,-29.8,5.73,2.30,-28.9,28.0
2012-06-19 00:52:00,0.0,1.9033,0.0011,400.46,0.28,3.5,12.2,138.06,30.78,24.64,36.47,0.95,-26.87,1.08,-52,526,-913,21.4,28.9,2.6,21.9,2.0,-29.8,5.73,2.32,-28.9,28.0
2012-06-19 00:53:00,0.0,1.9026,0.0010,400.49,0.26,2.6,9.7,138.06,30.77,24.64,36.47,0.90,-26.85,1.85,-52,526,-914,21.4,28.7,2.5,21.9,1.9,-29.9,5.73,2.29,-28.9,28.0
2012-06-19 00:54:00,0.0,1.9022,0.0011,400.41,0.26,0.8,5.9,138.06,30.77,24.64,36.47,0.86,-26.83,2.55,-52,526,-913,21.4,28.6,2.4,21.9,1.9,-30.0,5.73,2.32,-28.9,28.0
2012-06-19 00:55:00,0.0,1.9019,0.0009,400.43,0.36,4.5,11.5,138.06,30.77,24.64,36.47,0.87,-26.81,3.04,-52,526,-913,21.4,28.6,2.4,21.9,1.9,-30.0,5.73,2.29,-28.9,28.0
2012-06-19 00:56:00,0.0,1.9014,0.0009,400.45,0.30,4.2,11.3,138.06,30.77,24.65,36.46,0.87,-26.79,3.30,-52,526,-913,21.4,28.5,2.4,21.9,1.9,-30.0,5.73,2.33,-28.9,28.1
2012-06-19 00:57:00,0.0,1.9015,0.0008,400.32,0.27,3.2,9.7,138.06,30.77,24.65,36.47,0.91,-26.77,3.60,-52,526,-913,21.4,28.5,2.4,21.9,1.9,-30.1,5.73,2.29,-28.9,28.1
2012-06-19 00:58:00,0.0,1.9013,0.0010,400.31,0.32,2.4,10.4,138.06,30.77,24.65,36.48,0.94,-26.76,4.06,-52,526,-914,21.4,28.5,2.4,21.9,1.9,-30.1,5.73,2.32,-28.9,28.1
2012-06-19 00:59:00,0.0,1.9014,0.0009,400.32,0.27,4.3,12.8,138.06,30.77,24.64,36.47,0.96,-26.74,4.65,-52,526,-913,21.4,28.5,2.4,21.9,1.9,-30.1,5.73,2.29,-28.8,28.1
2012-06-19 01:00:00,0.0,1.9012,0.0008,400.23,0.27,6.2,14.3,138.06,30.77,24.65,36.47,0.92,-26.72,5.21,-52,526,-914,21.4,28.7,2.5,21.9,1.9,-30.1,5.73,2.32,-28.8,28.1
2012-06-19 01:01:00,0.0,1.9015,0.0008,400.20,0.30,3.3,10.7,138.06,30.77,24.64,36.47,0.85,-26.70,5.76,-52,526,-913,21.4,28.8,2.5,21.9,1.9,-30.2,5.73,2.29,-28.8,28.1
2012-06-19 01:02:00,0.0,1.9007,0.0009,400.07,0.31,4.5,11.3,138.06,30.77,24.64,36.48,0.87,-26.69,6.28,-52,526,-914,21.4,28.7,2.5,21.9,1.9,-30.2,5.73,2.31,-28.8,28.1
2012-06-19 01:03:00,0.0,1.9012,0.0009,400.21,0.31,6.0,16.0,138.06,30.77,24.64,36.47,0.89,-26.67,6.78,-52,526,-913,21.4,28.6,2.5,21.9,1.9,-30.3,5.73,2.29,-28.8,28.1
2012-06-19 01:04:00,0.0,1.9011,0.0009,400.21,0.32,2.8,9.5,138.06,30.77,24.64,36.47,0.90,-26.65,7.25,-52,526,-913,21.4,28.6,2.4,21.9,1.9,-30.3,5.73,2.30,-28.8,28.2
2012-06-19 01:05:00,0.0,1.9006,0.0010,400.22,0.31,5.5,12.8,138.06,30.77,24.64,36.47,0.91,-26.63,7.71,-52,526,-914,21.5,28.6,2.5,21.9,1.9,-30.3,5.73,2.30,-28.7,28.2
2012-06-19 01:06:00,0.0,1.9007,0.0010,400.20,0.26,4.9,12.8,138.06,30.77,24.64,36.48,0.94,-26.62,8.14,-52,526,-913,21.5,28.5,2.4,21.9,1.9,-30.3,5.73,2.28,-28.7,28.2
2012-06-19 01:07:00,0.0,1.9009,0.0010,400.20,0.26,4.4,13.0,138.06,30.77,24.64,36.47,0.96,-26.60,8.55,-52,526,-914,21.5,28.6,2.5,21.9,1.9,-30.3,5.73,2.32,-28.7,28.2
2012-06-19 01:08:00,0.0,1.9006,0.0009,400.32,0.28,9.7,17.3,138.06,30.77,24.64,36.47,0.95,-26.59,8.94,-52,526,-913,21.5,28.5,2.4,21.9,1.9,-30.3,5.73,2.27,-28.7,28.2
2012-06-19 01:09:00,0.0,1.9003,0.0011,400.24,0.28,4.7,11.8,138.06,30.77,24.64,36.47,0.91,-26.58,9.32,-52,526,-913,21.5,28.4,2.4,21.9,1.9,-30.3,5.73,2.32,-28.7,28.2
2012-06-19 01:10:00,0.0,1.9005,0.0007,400.25,0.27,8.6,16.0,138.06,30.77,24.64,36.47,0.87,-26.56,9.69,-52,526,-914,21.5,28.4,2.4,21.9,1.9,-30.3,5.73,2.27,-28.7,28.2
2012-06-19 01:11:00,0.0,1.9002,0.0010,400.33,0.30,5.1,11.5,138.06,30.76,24.64,36.47,0.89,-26.55,10.05,-52,526,-913,21.5,28.1,2.3,21.9,1.9,-30.3,5.73,2.32,-28.7,28.2
2012-06-19 01:12:00,0.0,1.9005,0.0011,400.37,0.31,7.5,16.7,138.06,30.76,24.64,36.47,0.89,-26.54,10.41,-52,526,-914,21.5,28.0,2.2,21.9,1.9,-30.2,5.73,2.27,-28.7,28.2
2012-06-19 01:13:00,0.0,1.9007,0.0010,400.40,0.29,7.7,15.6,138.06,30.76,24.64,36.47,0.91,-26.52,10.76,-52,526,-914,21.5,27.9,2.2,21.9,1.9,-30.2,5.73,2.31,-28.7,28.2
2012-06-19 01:14:00,0.0,1.9000,0.0009,400.24,0.32,3.1,11.0,138.06,30.76,24.64,36.48,0.92,-26.51,11.09,-52,526,-913,21.5,28.0,2.2,21.9,1.9,-30.2,5.73,2.28,-28.6,28.3
2012-06-19 01:15:00,0.0,1.8999,0.0010,400.37,0.29,2.5,8.2,138.06,30.76,24.64,36.47,0.92,-26.50,11.41,-52,526,-914,21.5,28.1,2.3,21.9,1.9,-30.2,5.73,2.30,-28.7,28.3
2012-06-19 01:16:00,0.0,1.8998,0.0009,400.40,0.31,5.2,12.9,138.06,30.76,24.64,36.47,0.94,-26.48,11.72,-52,526,-914,21.5,28.0,2.2,21.9,1.9,-30.3,5.73,2.29,-28.6,28.3
2012-06-19 01:17:00,0.0,1.8998,0.0009,400.29,0.28,6.0,13.3,138.06,30.77,24.64,36.47,0.95,-26.47,12.02,-52,526,-914,21.5,28.2,2.3,21.9,1.9,-30.2,5.73,2.29,-28.6,28.3
2012-06-19 01:18:00,0.0,1.8995,0.0008,400.38,0.27,6.0,13.1,138.06,30.77,24.64,36.47,0.95,-26.46,12.31,-52,526,-914,21.5,28.3,2.4,21.9,1.9,-30.3,5.73,2.30,-28.6,28.3
2012-06-19 01:19:00,0.0,1.9002,0.0008,400.44,0.31,6.6,14.6,138.06,30.76,24.64,36.47,0.92,-26.45,12.59,-52,526,-914,21.5,28.1,2.3,22.0,1.9,-30.2,5.73,2.29,-28.6,28.3
2012-06-19 01:20:00,0.0,1.8997,0.0008,400.38,0.29,6.0,15.3,138.06,30.76,24.64,36.47,0.91,-26.43,12.86,-52,526,-914,21.5,28.0,2.2,22.0,1.9,-30.2,5.73,2.29,-28.6,28.3
2012-06-19 01:21:00,0.0,1.9000,0.0008,400.32,0.24,6.0,13.5,138.06,30.76,24.64,36.47,0.88,-26.43,13.11,-52,526,-914,21.5,28.2,2.3,22.0,1.9,-30.2,5.73,2.28,-28.6,28.3
2012-06-19 01:22:00,0.0,1.8996,0.0009,400.43,0.27,8.9,14.9,138.06,30.76,24.64,36.47,0.91,-26.42,13.35,-52,526,-914,21.5,28.0,2.2,22.0,1.9,-30.3,5.73,2.30,-28.6,28.3
2012-06-19 01:23:00,0.0,1.8991,0.0010,400.21,0.22,7.6,12.9,138.06,30.76,24.64,36.47,0.88,-26.41,13.59,-52,526,-914,21.5,28.1,2.3,22.0,1.9,-30.2,5.73,2.27,-28.6,28.3
2012-06-19 01:24:00,0.0,1.8989,0.0010,400.27,0.33,7.5,15.8,138.06,30.76,24.65,36.47,0.90,-26.40,13.81,-52,526,-914,21.5,28.1,2.3,22.0,1.9,-30.2,5.73,2.31,-28.6,28.3
2012-06-19 01:25:00,0.0,1.8986,0.0009,400.23,0.28,7.4,13.1,138.06,30.76,24.65,36.47,0.93,-26.40,14.03,-52,527,-914,21.6,28.2,2.4,22.0,1.9,-30.3,5.73,2.26,-28.6,28.3
2012-06-19 01:26:00,0.0,1.8989,0.0011,400.25,0.29,5.2,13.4,138.06,30.76,24.64,36.47,0.93,-26.39,14.23,-52,527,-914,21.6,28.2,2.4,22.0,1.9,-30.2,5.73,2.31,-28.6,28.3
2012-06-19 01:27:00,0.0,1.8987,0.0009,400.28,0.25,4.1,13.0,138.06,30.76,24.64,36.48,0.94,-26.38,14.43,-52,526,-914,21.6,28.1,2.3,22.0,1.9,-30.2,5.73,2.27,-28.6,28.4
2012-06-19 01:28:00,0.0,1.8984,0.0009,400.24,0.32,9.5,14.1,138.06,30.76,24.64,36.47,0.95,-26.37,14.62,-52,527,-914,21.6,28.2,2.4,22.0,1.9,-30.2,5.73,2.31,-28.6,28.4
2012-06-19 01:29:00,0.0,1.8985,0.0010,400.38,0.32,4.6,10.2,138.06,30.76,24.64,36.47,0.95,-26.36,14.80,-52,527,-914,21.6,28.2,2.4,22.0,1.9,-30.2,5.73,2.27,-28.6,28.4
2012-06-19 01:30:00,0.0,1.8983,0.0011,400.25,0.28,9.2,16.1,138.06,30.76,24.64,36.47,0.93,-26.35,14.98,-52,526,-914,21.6,28.2,2.4,22.0,1.9,-30.3,5.73,2.31,-28.6,28.4
2012-06-19 01:31:00,0.0,1.8982,0.0008,400.34,0.30,7.7,18.5,138.06,30.76,24.64,36.47,0.89,-26.35,15.15,-52,527,-914,21.6,28.1,2.4,22.0,1.9,-30.1,5.73,2.27,-28.6,28.4
2012-06-19 01:32:00,0.0,1.8984,0.0010,400.37,0.31,7.3,16.0,138.06,30.76,24.64,36.47,0.89,-26.34,15.31,-52,527,-914,21.6,28.0,2.3,22.0,1.9,-30.3,5.73,2.30,-28.6,28.4
2012-06-19 01:33:00,0.0,1.8984,0.0009,400.30,0.31,6.9,13.1,138.06,30.76,24.64,36.47,0.89,-26.33,15.46,-52,527,-914,21.6,28.2,2.4,22.0,1.9,-30.2,5.73,2.28,-28.6,28.4
2012-06-19 01:34:00,0.0,1.8979,0.0008,400.46,0.27,7.3,15.5,138.06,30.76,24.65,36.47,0.90,-26.32,15.60,-52,527,-914,21.6,28.1,2.3,22.0,1.9,-30.2,5.73,2.29,-28.6,28.4
2012-06-19 01:35:00,0.0,1.8981,0.0010,400.42,0.28,7.4,12.2,138.06,30.76,24.64,36.47,0.90,-26.32,15.74,-52,527,-914,21.6,28.1,2.3,22.0,1.9,-30.3,5.73,2.29,-28.6,28.4
2012-06-19 01:36:00,0.0,1.8981,0.0010,400.33,0.29,11.2,21.4,138.06,30.76,24.64,36.47,0.92,-26.32,15.87,-52,527,-914,21.6,28.1,2.3,22.0,1.9,-30.2,5.73,2.28,-28.6,28.4
2012-06-19 01:37:00,0.0,1.8980,0.0009,400.29,0.35,11.3,19.7,138.06,30.76,24.65,36.48,0.92,-26.31,16.00,-52,527,-914,21.6,28.2,2.4,22.0,1.9,-30.2,5.73,2.31,-28.6,28.4
2012-06-19 01:38:00,0.0,1.8982,0.0011,400.34,0.32,7.1,12.9,138.06,30.76,24.64,36.47,0.93,-26.31,16.12,-52,527,-914,21.6,28.4,2.5,22.0,1.9,-30.2,5.73,2.27,-28.6,28.4
2012-06-19 01:39:00,0.0,1.8977,0.0010,400.34,0.27,8.3,14.9,138.06,30.76,24.64,36.47,0.94,-26.30,16.24,-52,527,-914,21.6,28.3,2.4,22.0,1.9,-30.2,5.73,2.31,-28.6,28.4
2012-06-19 01:40:00,0.0,1.8978,0.0009,400.35,0.27,5.6,13.8,138.06,30.76,24.64,36.47,0.94,-26.30,16.35,-52,527,-914,21.6,28.3,2.4,22.0,1.9,-30.2,5.73,2.27,-28.6,28.4
2012-06-19 01:41:00,0.0,1.8980,0.0009,400.45,0.28,7.0,12.0,138.06,30.77,24.64,36.46,0.95,-26.30,16.46,-52,527,-914,21.6,28.4,2.5,22.0,1.9,-30.2,5.73,2.31,-28.6,28.4
2012-06-19 01:42:00,0.0,1.8973,0.0011,400.36,0.31,8.0,19.7,138.06,30.76,24.64,36.47,0.94,-26.30,16.56,-52,527,-914,21.6,28.5,2.5,22.0,1.9,-30.2,5.73,2.26,-28.5,28.4
2012-06-19 01:43:00,0.0,1.8970,0.0010,400.36,0.30,9.3,16.3,138.06,30.76,24.65,36.47,0.93,-26.29,16.65,-52,527,-914,21.6,28.4,2.5,22.0,1.9,-30.1,5.73,2.31,-28.5,28.4
2012-06-19 01:44:00,0.0,1.8973,0.0011,400.32,0.30,8.3,16.4,138.06,30.76,24.64,36.47,0.91,-26.29,16.75,-52,527,-914,21.6,28.4,2.5,22.0,1.9,-30.2,5.73,2.26,-28.6,28.4
2012-06-19 01:45:00,0.0,1.8972,0.0009,400.25,0.30,7.7,18.2,138.06,30.76,24.65,36.47,0.90,-26.29,16.83,-52,527,-914,21.6,28.5,2.5,22.0,1.9,-30.2,5.73,2.31,-28.6,28.4
2012-06-19 01:46:00,0.0,1.8967,0.0009,400.34,0.26,9.6,15.9,138.06,30.76,24.65,36.47,0.89,-26.28,16.92,-52,527,-914,21.6,28.5,2.6,22.0,1.9,-30.2,5.73,2.27,-28.6,28.4
2012-06-19 01:47:00,0.0,1.8972,0.0009,400.44,0.33,7.7,15.5,138.06,30.76,24.65,36.47,0.89,-26.28,17.00,-52,527,-914,21.6,28.3,2.4,22.0,1.9,-30.2,5.73,2.31,-28.6,28.4
2012-06-19 01:48:00,0.0,1.8972,0.0010,400.39,0.31,6.1,12.3,138.06,30.76,24.64,36.47,0.92,-26.27,17.08,-52,527,-914,21.5,28.3,2.4,22.0,1.9,-30.2,5.73,2.27,-28.6,28.4
2012-06-19 01:49:00,0.0,1.8971,0.0009,400.31,0.31,11.4,19.2,138.06,30.76,24.64,36.47,0.91,-26.28,17.16,-52,527,-914,21.6,28.3,2.4,22.0,1.9,-30.2,5.73,2.31,-28.6,28.4
2012-06-19 01:50:00,0.0,1.8974,0.0009,400.32,0.25,8.7,15.3,138.06,30.76,24.64,36.47,0.93,-26.28,17.22,-52,527,-914,21.5,28.4,2.4,22.0,1.9,-30.2,5.73,2.27,-28.6,28.4
2012-06-19 01:51:00,0.0,1.8976,0.0007,400.25,0.30,7.8,16.8,138.06,30.76,24.64,36.47,0.93,-26.27,17.29,-52,527,-914,21.6,28.5,2.5,22.0,1.9,-30.2,5.73,2.31,-28.6,28.4
2012-06-19 01:52:00,0.0,1.8973,0.0009,400.24,0.26,11.5,14.9,138.06,30.76,24.65,36.48,0.93,-26.27,17.36,-52,527,-914,21.6,28.4,2.5,22.0,1.9,-30.2,5.73,2.28,-28.6,28.4
2012-06-19 01:53:00,0.0,1.8976,0.0011,400.32,0.26,7.8,15.0,138.06,30.76,24.64,36.47,0.94,-26.27,17.42,-52,527,-914,21.5,28.4,2.4,22.0,1.9,-30.2,5.73,2.30,-28.6,28.4
2012-06-19 01:54:00,0.0,1.8977,0.0009,400.41,0.29,6.0,13.7,138.06,30.76,24.64,36.47,0.94,-26.27,17.48,-52,527,-914,21.6,28.2,2.4,22.0,1.9,-30.2,5.73,2.28,-28.6,28.4
2012-06-19 01:55:00,0.0,1.8976,0.0009,400.37,0.27,6.5,13.7,138.06,30.76,24.64,36.47,0.94,-26.27,17.54,-52,527,-914,21.6,28.2,2.4,22.0,1.9,-30.2,5.73,2.30,-28.6,28.4
2012-06-19 01:56:00,0.0,1.8977,0.0010,400.45,0.29,6.5,12.4,138.06,30.76,24.64,36.47,0.94,-26.27,17.59,-52,527,-914,21.5,28.1,2.3,22.0,1.9,-30.3,5.73,2.29,-28.6,28.4
2012-06-19 01:57:00,0.0,1.8975,0.0009,400.44,0.26,3.6,9.5,138.06,30.75,24.65,36.47,0.93,-26.27,17.65,-52,527,-915,21.6,28.1,2.3,22.0,1.9,-30.2,5.73,2.30,-28.6,28.4
2012-06-19 01:58:00,0.0,1.8974,0.0008,400.36,0.29,10.6,19.9,138.06,30.75,24.65,36.46,0.89,-26.26,17.69,-52,527,-914,21.6,28.2,2.4,22.0,1.9,-30.2,5.73,2.29,-28.6,28.4
2012-06-19 01:59:00,0.0,1.8972,0.0009,400.36,0.33,4.8,11.4,138.06,30.75,24.64,36.47,0.89,-26.26,17.74,-52,527,-914,21.6,28.3,2.5,22.0,1.9,-30.2,5.73,2.29,-28.6,28.4
2012-06-19 02:00:00,0.0,1.8968,0.0008,400.39,0.28,8.4,15.2,138.06,30.75,24.64,36.47,0.88,-26.26,17.79,-52,527,-914,21.6,28.3,2.4,22.0,1.9,-30.2,5.73,2.29,-28.6,28.4
2012-06-19 02:01:00,0.0,1.8972,0.0011,400.43,0.28,12.8,18.6,138.06,30.75,24.64,36.47,0.89,-26.26,17.84,-52,527,-914,21.6,28.1,2.3,22.0,1.9,-30.3,5.73,2.28,-28.5,28.4
2012-06-19 02:02:00,0.0,1.8974,0.0012,400.45,0.30,7.2,13.9,138.06,30.75,24.64,36.48,0.91,-26.25,17.88,-52,527,-915,21.6,28.0,2.3,22.0,1.9,-30.3,5.73,2.30,-28.6,28.4
2012-06-19 02:03:00,0.0,1.8973,0.0009,400.44,0.31,13.3,19.0,138.06,30.75,24.64,36.47,0.92,-26.26,17.92,-52,527,-914,21.6,28.2,2.4,22.0,1.8,-30.3,5.73,2.28,-28.5,28.4
2012-06-19 02:04:00,0.0,1.8972,0.0011,400.43,0.33,8.4,17.3,138.06,30.75,24.64,36.47,0.91,-26.25,17.96,-52,527,-914,21.6,28.2,2.4,22.0,1.9,-30.3,5.73,2.31,-28.6,28.4
2012-06-19 02:05:00,0.0,1.8974,0.0009,400.41,0.26,6.2,12.6,138.06,30.75,24.64,36.47,0.92,-26.25,18.00,-52,527,-915,21.5,28.1,2.3,22.0,1.8,-30.4,5.73,2.27,-28.5,28.4
2012-06-19 02:06:00,0.0,1.8976,0.0009,400.42,0.30,6.1,15.5,138.06,30.75,24.64,36.47,0.94,-26.25,18.03,-52,527,-914,21.6,28.2,2.4,22.0,1.8,-30.4,5.73,2.31,-28.6,28.4
2012-06-19 02:07:00,0.0,1.8973,0.0009,400.44,0.29,5.7,15.1,138.06,30.75,24.64,36.47,0.93,-26.25,18.06,-52,527,-915,21.6,28.1,2.3,22.0,1.9,-30.3,5.73,2.27,-28.5,28.4
2012-06-19 02:08:00,0.0,1.8970,0.0009,400.41,0.30,7.4,14.5,138.06,30.75,24.64,36.47,0.94,-26.25,18.10,-52,527,-914,21.5,28.1,2.3,22.0,1.8,-30.4,5.73,2.31,-28.6,28.4
2012-06-19 02:09:00,0.0,1.8975,0.0009,400.55,0.33,6.9,12.4,138.06,30.75,24.64,36.46,0.94,-26.25,18.13,-52,527,-914,21.5,28.2,2.3,22.0,1.8,-30.3,5.73,2.27,-28.6,28.4
2012-06-19 02:10:00,0.0,1.8971,0.0009,400.56,0.23,9.5,16.6,138.06,30.75,24.64,36.46,0.93,-26.24,18.16,-52,527,-915,21.5,28.0,2.2,22.0,1.8,-30.4,5.73,2.32,-28.6,28.4
2012-06-19 02:11:00,0.0,1.8970,0.0010,400.42,0.29,6.8,17.3,138.06,30.75,24.64,36.47,0.92,-26.24,18.19,-52,527,-914,21.5,27.9,2.2,22.0,1.8,-30.3,5.73,2.27,-28.6,28.4
2012-06-19 02:12:00,0.0,1.8975,0.0009,400.56,0.34,8.4,15.2,138.06,30.75,24.64,36.47,0.91,-26.24,18.22,-52,527,-915,21.6,27.8,2.2,22.0,1.9,-30.3,5.73,2.31,-28.6,28.4
2012-06-19 02:13:00,0.0,1.8973,0.0009,400.53,0.36,9.2,17.4,138.06,30.75,24.64,36.47,0.90,-26.24,18.24,-52,527,-914,21.6,27.8,2.2,22.0,1.9,-30.3,5.73,2.27,-28.6,28.4
2012-06-19 02:14:00,0.0,1.8972,0.0009,400.41,0.28,4.3,12.6,138.06,30.75,24.64,36.47,0.89,-26.24,18.27,-52,527,-915,21.5,27.9,2.2,22.0,1.8,-30.4,5.73,2.31,-28.6,28.4
2012-06-19 02:15:00,0.0,1.8967,0.0009,400.50,0.34,10.3,18.9,138.06,30.76,24.64,36.47,0.90,-26.24,18.29,-52,527,-914,21.6,27.9,2.2,22.0,1.8,-30.4,5.73,2.27,-28.6,28.4
2012-06-19 02:16:00,0.0,1.8970,0.0009,400.42,0.27,10.2,17.0,138.06,30.76,24.64,36.47,0.90,-26.24,18.32,-52,527,-915,21.6,27.9,2.2,22.0,1.8,-30.4,5.73,2.30,-28.6,28.4
2012-06-19 02:17:00,0.0,1.8973,0.0009,400.40,0.35,10.0,19.3,138.06,30.76,24.64,36.47,0.91,-26.24,18.34,-52,527,-915,21.6,27.9,2.2,22.0,1.8,-30.3,5.73,2.28,-28.6,28.4
2012-06-19 02:18:00,0.0,1.8970,0.0009,400.50,0.28,6.7,17.5,138.06,30.76,24.64,36.47,0.91,-26.24,18.36,-52,527,-914,21.6,27.8,2.2,22.0,1.8,-30.4,5.73,2.29,-28.6,28.4
2012-06-19 02:19:00,0.0,1.8970,0.0012,400.48,0.38,6.9,14.1,138.06,30.76,24.64,36.47,0.93,-26.24,18.38,-52,527,-915,21.6,27.7,2.2,22.0,1.9,-30.3,5.73,2.30,-28.6,28.4
2012-06-19 02:20:00,0.0,1.8966,0.0010,400.47,0.28,10.2,18.2,138.06,30.76,24.65,36.47,0.93,-26.24,18.40,-52,527,-914,21.6,27.6,2.1,22.0,1.8,-30.4,5.73,2.28,-28.6,28.4
2012-06-19 02:21:00,0.0,1.8966,0.0010,400.38,0.37,6.9,15.7,138.06,30.76,24.65,36.47,0.94,-26.23,18.42,-52,527,-915,21.6,27.7,2.1,22.0,1.8,-30.4,5.73,2.30,-28.6,28.4